Year,Month,Day,Hour,Minute,Value (Times are PST for temperature in C)
2021,06,26,00,00,23.80
2021,06,26,00,01,23.80
2021,06,26,00,02,23.80
2021,06,26,00,03,23.70
2021,06,26,00,04,23.70
2021,06,26,00,05,23.60
2021,06,26,00,06,23.60
2021,06,26,00,07,23.60
2021,06,26,00,08,23.60
2021,06,26,00,09,23.50
2021,06,26,00,10,23.50
2021,06,26,00,11,23.50
2021,06,26,00,12,23.50
2021,06,26,00,13,23.50
2021,06,26,00,14,23.50
2021,06,26,00,15,23.40
2021,06,26,00,16,23.40
2021,06,26,00,17,23.40
2021,06,26,00,18,23.40
2021,06,26,00,19,23.40
2021,06,26,00,20,23.30
2021,06,26,00,21,23.30
2021,06,26,00,22,23.40
2021,06,26,00,23,23.40
2021,06,26,00,24,23.30
2021,06,26,00,25,23.40
2021,06,26,00,26,23.40
2021,06,26,00,27,23.40
2021,06,26,00,28,23.30
2021,06,26,00,29,23.30
2021,06,26,00,30,23.30
2021,06,26,00,31,23.30
2021,06,26,00,32,23.20
2021,06,26,00,33,23.20
2021,06,26,00,34,23.20
2021,06,26,00,35,23.20
2021,06,26,00,36,23.20
2021,06,26,00,37,23.30
2021,06,26,00,38,23.30
2021,06,26,00,39,23.30
2021,06,26,00,40,23.30
2021,06,26,00,41,23.40
2021,06,26,00,42,23.40
2021,06,26,00,43,23.40
2021,06,26,00,44,23.30
2021,06,26,00,45,23.30
2021,06,26,00,46,23.20
2021,06,26,00,47,23.10
2021,06,26,00,48,23.00
2021,06,26,00,49,22.90
2021,06,26,00,50,22.90
2021,06,26,00,51,22.80
2021,06,26,00,52,22.70
2021,06,26,00,53,22.70
2021,06,26,00,54,22.60
2021,06,26,00,55,22.60
2021,06,26,00,56,22.60
2021,06,26,00,57,22.60
2021,06,26,00,58,22.60
2021,06,26,00,59,22.60
2021,06,26,01,00,22.70
2021,06,26,01,01,22.70
2021,06,26,01,02,22.80
2021,06,26,01,03,22.80
2021,06,26,01,04,22.80
2021,06,26,01,05,22.80
2021,06,26,01,06,22.80
2021,06,26,01,07,22.90
2021,06,26,01,08,22.90
2021,06,26,01,09,23.00
2021,06,26,01,10,23.10
2021,06,26,01,11,23.20
2021,06,26,01,12,23.20
2021,06,26,01,13,23.30
2021,06,26,01,14,23.40
2021,06,26,01,15,23.40
2021,06,26,01,16,23.40
2021,06,26,01,17,23.50
2021,06,26,01,18,23.50
2021,06,26,01,19,23.50
2021,06,26,01,20,23.50
2021,06,26,01,21,23.50
2021,06,26,01,22,23.50
2021,06,26,01,23,23.50
2021,06,26,01,24,23.50
2021,06,26,01,25,23.60
2021,06,26,01,26,23.60
2021,06,26,01,27,23.60
2021,06,26,01,28,23.70
2021,06,26,01,29,23.80
2021,06,26,01,30,23.80
2021,06,26,01,31,23.80
2021,06,26,01,32,23.90
2021,06,26,01,33,23.90
2021,06,26,01,34,23.90
2021,06,26,01,35,23.90
2021,06,26,01,36,23.90
2021,06,26,01,37,24.00
2021,06,26,01,38,24.00
2021,06,26,01,39,24.00
2021,06,26,01,40,24.00
2021,06,26,01,41,24.00
2021,06,26,01,42,24.10
2021,06,26,01,43,24.00
2021,06,26,01,44,24.00
2021,06,26,01,45,24.00
2021,06,26,01,46,24.00
2021,06,26,01,47,24.00
2021,06,26,01,48,23.90
2021,06,26,01,49,23.90
2021,06,26,01,50,23.90
2021,06,26,01,51,23.90
2021,06,26,01,52,23.80
2021,06,26,01,53,23.80
2021,06,26,01,54,23.80
2021,06,26,01,55,23.80
2021,06,26,01,56,23.80
2021,06,26,01,57,23.80
2021,06,26,01,58,23.80
2021,06,26,01,59,23.80
2021,06,26,02,00,23.80
2021,06,26,02,01,23.80
2021,06,26,02,02,23.80
2021,06,26,02,03,23.80
2021,06,26,02,04,23.80
2021,06,26,02,05,23.80
2021,06,26,02,06,23.80
2021,06,26,02,07,23.90
2021,06,26,02,08,24.00
2021,06,26,02,09,24.00
2021,06,26,02,10,24.10
2021,06,26,02,11,24.10
2021,06,26,02,12,24.10
2021,06,26,02,13,24.20
2021,06,26,02,14,24.20
2021,06,26,02,15,24.20
2021,06,26,02,16,24.20
2021,06,26,02,17,24.20
2021,06,26,02,18,24.20
2021,06,26,02,19,24.20
2021,06,26,02,20,24.20
2021,06,26,02,21,24.20
2021,06,26,02,22,24.20
2021,06,26,02,23,24.10
2021,06,26,02,24,24.20
2021,06,26,02,25,24.20
2021,06,26,02,26,24.20
2021,06,26,02,27,24.20
2021,06,26,02,28,24.20
2021,06,26,02,29,24.20
2021,06,26,02,30,24.20
2021,06,26,02,31,24.20
2021,06,26,02,32,24.20
2021,06,26,02,33,24.20
2021,06,26,02,34,24.20
2021,06,26,02,35,24.20
2021,06,26,02,36,24.20
2021,06,26,02,37,24.10
2021,06,26,02,38,24.10
2021,06,26,02,39,24.10
2021,06,26,02,40,24.10
2021,06,26,02,41,24.10
2021,06,26,02,42,24.10
2021,06,26,02,43,24.20
2021,06,26,02,44,24.20
2021,06,26,02,45,24.20
2021,06,26,02,46,24.30
2021,06,26,02,47,24.20
2021,06,26,02,48,24.20
2021,06,26,02,49,24.20
2021,06,26,02,50,24.20
2021,06,26,02,51,24.20
2021,06,26,02,52,24.20
2021,06,26,02,53,24.20
2021,06,26,02,54,24.20
2021,06,26,02,55,24.30
2021,06,26,02,56,24.40
2021,06,26,02,57,24.40
2021,06,26,02,58,24.40
2021,06,26,02,59,24.50
2021,06,26,03,00,24.60
2021,06,26,03,01,24.60
2021,06,26,03,02,24.60
2021,06,26,03,03,24.60
2021,06,26,03,04,24.50
2021,06,26,03,05,24.50
2021,06,26,03,06,24.40
2021,06,26,03,07,24.30
2021,06,26,03,08,24.20
2021,06,26,03,09,24.20
2021,06,26,03,10,24.10
2021,06,26,03,11,24.10
2021,06,26,03,12,24.10
2021,06,26,03,13,24.20
2021,06,26,03,14,24.20
2021,06,26,03,15,24.10
2021,06,26,03,16,24.10
2021,06,26,03,17,24.10
2021,06,26,03,18,24.00
2021,06,26,03,19,24.00
2021,06,26,03,20,23.90
2021,06,26,03,21,23.80
2021,06,26,03,22,23.70
2021,06,26,03,23,23.70
2021,06,26,03,24,23.70
2021,06,26,03,25,23.60
2021,06,26,03,26,23.60
2021,06,26,03,27,23.60
2021,06,26,03,28,23.60
2021,06,26,03,29,23.60
2021,06,26,03,30,23.70
2021,06,26,03,31,23.70
2021,06,26,03,32,23.80
2021,06,26,03,33,23.80
2021,06,26,03,34,23.90
2021,06,26,03,35,23.90
2021,06,26,03,36,24.00
2021,06,26,03,37,24.00
2021,06,26,03,38,24.10
2021,06,26,03,39,24.00
2021,06,26,03,40,24.10
2021,06,26,03,41,24.10
2021,06,26,03,42,24.10
2021,06,26,03,43,24.10
2021,06,26,03,44,24.10
2021,06,26,03,45,24.10
2021,06,26,03,46,24.20
2021,06,26,03,47,24.20
2021,06,26,03,48,24.20
2021,06,26,03,49,24.20
2021,06,26,03,50,24.30
2021,06,26,03,51,24.30
2021,06,26,03,52,24.30
2021,06,26,03,53,24.30
2021,06,26,03,54,24.40
2021,06,26,03,55,24.40
2021,06,26,03,56,24.50
2021,06,26,03,57,24.60
2021,06,26,03,58,24.70
2021,06,26,03,59,24.70
2021,06,26,04,00,24.70
2021,06,26,04,01,24.80
2021,06,26,04,02,24.80
2021,06,26,04,03,24.80
2021,06,26,04,04,24.90
2021,06,26,04,05,24.90
2021,06,26,04,06,24.90
2021,06,26,04,07,24.90
2021,06,26,04,08,24.90
2021,06,26,04,09,24.90
2021,06,26,04,10,24.80
2021,06,26,04,11,24.70
2021,06,26,04,12,24.60
2021,06,26,04,13,24.50
2021,06,26,04,14,24.30
2021,06,26,04,15,24.20
2021,06,26,04,16,24.10
2021,06,26,04,17,24.00
2021,06,26,04,18,23.90
2021,06,26,04,19,23.90
2021,06,26,04,20,23.80
2021,06,26,04,21,23.80
2021,06,26,04,22,23.70
2021,06,26,04,23,23.70
2021,06,26,04,24,23.70
2021,06,26,04,25,23.70
2021,06,26,04,26,23.60
2021,06,26,04,27,23.60
2021,06,26,04,28,23.60
2021,06,26,04,29,23.60
2021,06,26,04,30,23.50
2021,06,26,04,31,23.60
2021,06,26,04,32,23.60
2021,06,26,04,33,23.60
2021,06,26,04,34,23.60
2021,06,26,04,35,23.60
2021,06,26,04,36,23.60
2021,06,26,04,37,23.70
2021,06,26,04,38,23.70
2021,06,26,04,39,23.70
2021,06,26,04,40,23.80
2021,06,26,04,41,23.80
2021,06,26,04,42,23.80
2021,06,26,04,43,23.80
2021,06,26,04,44,23.80
2021,06,26,04,45,23.80
2021,06,26,04,46,23.80
2021,06,26,04,47,23.80
2021,06,26,04,48,23.90
2021,06,26,04,49,23.90
2021,06,26,04,50,23.90
2021,06,26,04,51,23.90
2021,06,26,04,52,23.80
2021,06,26,04,53,23.80
2021,06,26,04,54,23.80
2021,06,26,04,55,23.80
2021,06,26,04,56,23.80
2021,06,26,04,57,23.80
2021,06,26,04,58,23.90
2021,06,26,04,59,23.90
2021,06,26,05,00,24.00
2021,06,26,05,01,24.00
2021,06,26,05,02,24.10
2021,06,26,05,03,24.10
2021,06,26,05,04,24.20
2021,06,26,05,05,24.30
2021,06,26,05,06,24.40
2021,06,26,05,07,24.60
2021,06,26,05,08,24.70
2021,06,26,05,09,24.70
2021,06,26,05,10,24.80
2021,06,26,05,11,24.80
2021,06,26,05,12,24.80
2021,06,26,05,13,24.90
2021,06,26,05,14,24.80
2021,06,26,05,15,24.80
2021,06,26,05,16,24.80
2021,06,26,05,17,24.70
2021,06,26,05,18,24.60
2021,06,26,05,19,24.60
2021,06,26,05,20,24.50
2021,06,26,05,21,24.50
2021,06,26,05,22,24.40
2021,06,26,05,23,24.40
2021,06,26,05,24,24.30
2021,06,26,05,25,24.40
2021,06,26,05,26,24.40
2021,06,26,05,27,24.30
2021,06,26,05,28,24.30
2021,06,26,05,29,24.20
2021,06,26,05,30,24.10
2021,06,26,05,31,24.10
2021,06,26,05,32,24.00
2021,06,26,05,33,24.00
2021,06,26,05,34,23.90
2021,06,26,05,35,23.90
2021,06,26,05,36,23.90
2021,06,26,05,37,23.90
2021,06,26,05,38,24.00
2021,06,26,05,39,24.00
2021,06,26,05,40,24.00
2021,06,26,05,41,24.00
2021,06,26,05,42,24.00
2021,06,26,05,43,24.10
2021,06,26,05,44,24.00
2021,06,26,05,45,24.00
2021,06,26,05,46,24.00
2021,06,26,05,47,24.00
2021,06,26,05,48,23.90
2021,06,26,05,49,23.90
2021,06,26,05,50,23.80
2021,06,26,05,51,23.80
2021,06,26,05,52,23.80
2021,06,26,05,53,23.80
2021,06,26,05,54,23.80
2021,06,26,05,55,23.80
2021,06,26,05,56,23.80
2021,06,26,05,57,23.80
2021,06,26,05,58,23.80
2021,06,26,05,59,23.80
2021,06,26,06,00,23.80
2021,06,26,06,01,23.80
2021,06,26,06,02,23.80
2021,06,26,06,03,23.80
2021,06,26,06,04,23.70
2021,06,26,06,05,23.70
2021,06,26,06,06,23.70
2021,06,26,06,07,23.70
2021,06,26,06,08,23.60
2021,06,26,06,09,23.60
2021,06,26,06,10,23.60
2021,06,26,06,11,23.60
2021,06,26,06,12,23.60
2021,06,26,06,13,23.60
2021,06,26,06,14,23.50
2021,06,26,06,15,23.50
2021,06,26,06,16,23.50
2021,06,26,06,17,23.40
2021,06,26,06,18,23.40
2021,06,26,06,19,23.30
2021,06,26,06,20,23.20
2021,06,26,06,21,23.10
2021,06,26,06,22,23.10
2021,06,26,06,23,23.00
2021,06,26,06,24,22.90
2021,06,26,06,25,22.90
2021,06,26,06,26,22.80
2021,06,26,06,27,22.80
2021,06,26,06,28,22.70
2021,06,26,06,29,22.70
2021,06,26,06,30,22.70
2021,06,26,06,31,22.60
2021,06,26,06,32,22.60
2021,06,26,06,33,22.60
2021,06,26,06,34,22.60
2021,06,26,06,35,22.50
2021,06,26,06,36,22.50
2021,06,26,06,37,22.50
2021,06,26,06,38,22.50
2021,06,26,06,39,22.40
2021,06,26,06,40,22.40
2021,06,26,06,41,22.40
2021,06,26,06,42,22.40
2021,06,26,06,43,22.40
2021,06,26,06,44,22.50
2021,06,26,06,45,22.40
2021,06,26,06,46,22.40
2021,06,26,06,47,22.40
2021,06,26,06,48,22.40
2021,06,26,06,49,22.40
2021,06,26,06,50,22.40
2021,06,26,06,51,22.40
2021,06,26,06,52,22.30
2021,06,26,06,53,22.30
2021,06,26,06,54,22.30
2021,06,26,06,55,22.30
2021,06,26,06,56,22.30
2021,06,26,06,57,22.30
2021,06,26,06,58,22.30
2021,06,26,06,59,22.30
2021,06,26,07,00,22.30
2021,06,26,07,01,22.30
2021,06,26,07,02,22.30
2021,06,26,07,03,22.30
2021,06,26,07,04,22.30
2021,06,26,07,05,22.30
2021,06,26,07,06,22.30
2021,06,26,07,07,22.30
2021,06,26,07,08,22.30
2021,06,26,07,09,22.30
2021,06,26,07,10,22.30
2021,06,26,07,11,22.30
2021,06,26,07,12,22.20
2021,06,26,07,13,22.20
2021,06,26,07,14,22.20
2021,06,26,07,15,22.20
2021,06,26,07,16,22.30
2021,06,26,07,17,22.30
2021,06,26,07,18,22.30
2021,06,26,07,19,22.30
2021,06,26,07,20,22.30
2021,06,26,07,21,22.30
2021,06,26,07,22,22.30
2021,06,26,07,23,22.30
2021,06,26,07,24,22.30
2021,06,26,07,25,22.30
2021,06,26,07,26,22.30
2021,06,26,07,27,22.30
2021,06,26,07,28,22.30
2021,06,26,07,29,22.30
2021,06,26,07,30,22.40
2021,06,26,07,31,22.40
2021,06,26,07,32,22.40
2021,06,26,07,33,22.40
2021,06,26,07,34,22.40
2021,06,26,07,35,22.50
2021,06,26,07,36,22.60
2021,06,26,07,37,22.60
2021,06,26,07,38,22.60
2021,06,26,07,39,22.70
2021,06,26,07,40,22.70
2021,06,26,07,41,22.70
2021,06,26,07,42,22.70
2021,06,26,07,43,22.70
2021,06,26,07,44,22.70
2021,06,26,07,45,22.70
2021,06,26,07,46,22.70
2021,06,26,07,47,22.70
2021,06,26,07,48,22.80
2021,06,26,07,49,22.80
2021,06,26,07,50,22.80
2021,06,26,07,51,22.80
2021,06,26,07,52,22.80
2021,06,26,07,53,22.70
2021,06,26,07,54,22.80
2021,06,26,07,55,22.80
2021,06,26,07,56,22.80
2021,06,26,07,57,22.80
2021,06,26,07,58,22.80
2021,06,26,07,59,22.80
2021,06,26,08,00,22.80
2021,06,26,08,01,22.80
2021,06,26,08,02,22.80
2021,06,26,08,03,22.80
2021,06,26,08,04,22.80
2021,06,26,08,05,22.80
2021,06,26,08,06,22.80
2021,06,26,08,07,22.80
2021,06,26,08,08,22.90
2021,06,26,08,09,22.90
2021,06,26,08,10,22.90
2021,06,26,08,11,23.00
2021,06,26,08,12,23.00
2021,06,26,08,13,23.10
2021,06,26,08,14,23.10
2021,06,26,08,15,23.10
2021,06,26,08,16,23.20
2021,06,26,08,17,23.20
2021,06,26,08,18,23.20
2021,06,26,08,19,23.20
2021,06,26,08,20,23.30
2021,06,26,08,21,23.20
2021,06,26,08,22,23.20
2021,06,26,08,23,23.20
2021,06,26,08,24,23.30
2021,06,26,08,25,23.30
2021,06,26,08,26,23.30
2021,06,26,08,27,23.40
2021,06,26,08,28,23.50
2021,06,26,08,29,23.50
2021,06,26,08,30,23.50
2021,06,26,08,31,23.50
2021,06,26,08,32,23.60
2021,06,26,08,33,23.60
2021,06,26,08,34,23.60
2021,06,26,08,35,23.60
2021,06,26,08,36,23.60
2021,06,26,08,37,23.60
2021,06,26,08,38,23.60
2021,06,26,08,39,23.60
2021,06,26,08,40,23.70
2021,06,26,08,41,23.70
2021,06,26,08,42,23.70
2021,06,26,08,43,23.70
2021,06,26,08,44,23.70
2021,06,26,08,45,23.80
2021,06,26,08,46,23.80
2021,06,26,08,47,23.80
2021,06,26,08,48,23.90
2021,06,26,08,49,24.00
2021,06,26,08,50,24.00
2021,06,26,08,51,24.10
2021,06,26,08,52,24.20
2021,06,26,08,53,24.20
2021,06,26,08,54,24.20
2021,06,26,08,55,24.30
2021,06,26,08,56,24.30
2021,06,26,08,57,24.30
2021,06,26,08,58,24.30
2021,06,26,08,59,24.30
2021,06,26,09,00,24.40
2021,06,26,09,01,24.40
2021,06,26,09,02,24.40
2021,06,26,09,03,24.40
2021,06,26,09,04,24.40
2021,06,26,09,05,24.50
2021,06,26,09,06,24.50
2021,06,26,09,07,24.60
2021,06,26,09,08,24.60
2021,06,26,09,09,24.70
2021,06,26,09,10,24.70
2021,06,26,09,11,24.70
2021,06,26,09,12,24.80
2021,06,26,09,13,24.80
2021,06,26,09,14,24.80
2021,06,26,09,15,24.90
2021,06,26,09,16,24.90
2021,06,26,09,17,24.90
2021,06,26,09,18,24.90
2021,06,26,09,19,24.90
2021,06,26,09,20,24.90
2021,06,26,09,21,24.90
2021,06,26,09,22,25.00
2021,06,26,09,23,25.00
2021,06,26,09,24,25.00
2021,06,26,09,25,25.10
2021,06,26,09,26,25.10
2021,06,26,09,27,25.20
2021,06,26,09,28,25.30
2021,06,26,09,29,25.30
2021,06,26,09,30,25.40
2021,06,26,09,31,25.40
2021,06,26,09,32,25.40
2021,06,26,09,33,25.50
2021,06,26,09,34,25.50
2021,06,26,09,35,25.50
2021,06,26,09,36,25.50
2021,06,26,09,37,25.60
2021,06,26,09,38,25.60
2021,06,26,09,39,25.60
2021,06,26,09,40,25.60
2021,06,26,09,41,25.70
2021,06,26,09,42,25.80
2021,06,26,09,43,25.80
2021,06,26,09,44,25.80
2021,06,26,09,45,25.90
2021,06,26,09,46,26.00
2021,06,26,09,47,26.00
2021,06,26,09,48,26.10
2021,06,26,09,49,26.10
2021,06,26,09,50,26.20
2021,06,26,09,51,26.20
2021,06,26,09,52,26.30
2021,06,26,09,53,26.40
2021,06,26,09,54,26.40
2021,06,26,09,55,26.40
2021,06,26,09,56,26.40
2021,06,26,09,57,26.50
2021,06,26,09,58,26.50
2021,06,26,09,59,26.60
2021,06,26,10,00,26.60
2021,06,26,10,01,26.70
2021,06,26,10,02,26.80
2021,06,26,10,03,26.90
2021,06,26,10,04,27.00
2021,06,26,10,05,27.10
2021,06,26,10,06,27.10
2021,06,26,10,07,27.20
2021,06,26,10,08,27.30
2021,06,26,10,09,27.40
2021,06,26,10,10,27.40
2021,06,26,10,11,27.50
2021,06,26,10,12,27.60
2021,06,26,10,13,27.70
2021,06,26,10,14,27.70
2021,06,26,10,15,27.80
2021,06,26,10,16,27.90
2021,06,26,10,17,27.90
2021,06,26,10,18,28.00
2021,06,26,10,19,28.00
2021,06,26,10,20,28.10
2021,06,26,10,21,28.10
2021,06,26,10,22,28.20
2021,06,26,10,23,28.20
2021,06,26,10,24,28.30
2021,06,26,10,25,28.30
2021,06,26,10,26,28.30
2021,06,26,10,27,28.30
2021,06,26,10,28,28.40
2021,06,26,10,29,28.40
2021,06,26,10,30,28.50
2021,06,26,10,31,28.50
2021,06,26,10,32,28.50
2021,06,26,10,33,28.50
2021,06,26,10,34,28.50
2021,06,26,10,35,28.50
2021,06,26,10,36,28.40
2021,06,26,10,37,28.40
2021,06,26,10,38,28.40
2021,06,26,10,39,28.40
2021,06,26,10,40,28.40
2021,06,26,10,41,28.40
2021,06,26,10,42,28.40
2021,06,26,10,43,28.40
2021,06,26,10,44,28.40
2021,06,26,10,45,28.50
2021,06,26,10,46,28.50
2021,06,26,10,47,28.50
2021,06,26,10,48,28.60
2021,06,26,10,49,28.60
2021,06,26,10,50,28.70
2021,06,26,10,51,28.70
2021,06,26,10,52,28.70
2021,06,26,10,53,28.70
2021,06,26,10,54,28.80
2021,06,26,10,55,28.80
2021,06,26,10,56,28.80
2021,06,26,10,57,28.90
2021,06,26,10,58,28.90
2021,06,26,10,59,28.90
2021,06,26,11,00,28.90
2021,06,26,11,01,29.00
2021,06,26,11,02,29.00
2021,06,26,11,03,29.00
2021,06,26,11,04,29.10
2021,06,26,11,05,29.10
2021,06,26,11,06,29.10
2021,06,26,11,07,29.20
2021,06,26,11,08,29.20
2021,06,26,11,09,29.20
2021,06,26,11,10,29.20
2021,06,26,11,11,29.20
2021,06,26,11,12,29.30
2021,06,26,11,13,29.30
2021,06,26,11,14,29.30
2021,06,26,11,15,29.30
2021,06,26,11,16,29.30
2021,06,26,11,17,29.40
2021,06,26,11,18,29.40
2021,06,26,11,19,29.40
2021,06,26,11,20,29.50
2021,06,26,11,21,29.50
2021,06,26,11,22,29.50
2021,06,26,11,23,29.40
2021,06,26,11,24,29.40
2021,06,26,11,25,29.40
2021,06,26,11,26,29.50
2021,06,26,11,27,29.50
2021,06,26,11,28,29.60
2021,06,26,11,29,29.60
2021,06,26,11,30,29.60
2021,06,26,11,31,29.60
2021,06,26,11,32,29.60
2021,06,26,11,33,29.60
2021,06,26,11,34,29.60
2021,06,26,11,35,29.60
2021,06,26,11,36,29.60
2021,06,26,11,37,29.60
2021,06,26,11,38,29.70
2021,06,26,11,39,29.70
2021,06,26,11,40,29.70
2021,06,26,11,41,29.80
2021,06,26,11,42,29.80
2021,06,26,11,43,29.80
2021,06,26,11,44,29.90
2021,06,26,11,45,29.90
2021,06,26,11,46,30.00
2021,06,26,11,47,30.10
2021,06,26,11,48,30.20
2021,06,26,11,49,30.30
2021,06,26,11,50,30.30
2021,06,26,11,51,30.30
2021,06,26,11,52,30.40
2021,06,26,11,53,30.40
2021,06,26,11,54,30.40
2021,06,26,11,55,30.40
2021,06,26,11,56,30.50
2021,06,26,11,57,30.60
2021,06,26,11,58,30.60
2021,06,26,11,59,30.70
2021,06,26,12,00,30.70
2021,06,26,12,01,30.70
2021,06,26,12,02,30.70
2021,06,26,12,03,30.80
2021,06,26,12,04,30.80
2021,06,26,12,05,30.80
2021,06,26,12,06,30.90
2021,06,26,12,07,30.90
2021,06,26,12,08,31.00
2021,06,26,12,09,31.00
2021,06,26,12,10,31.10
2021,06,26,12,11,31.10
2021,06,26,12,12,31.20
2021,06,26,12,13,31.20
2021,06,26,12,14,31.30
2021,06,26,12,15,31.30
2021,06,26,12,16,31.40
2021,06,26,12,17,31.40
2021,06,26,12,18,31.40
2021,06,26,12,19,31.30
2021,06,26,12,20,31.30
2021,06,26,12,21,31.30
2021,06,26,12,22,31.30
2021,06,26,12,23,31.30
2021,06,26,12,24,31.30
2021,06,26,12,25,31.30
2021,06,26,12,26,31.40
2021,06,26,12,27,31.40
2021,06,26,12,28,31.50
2021,06,26,12,29,31.50
2021,06,26,12,30,31.50
2021,06,26,12,31,31.60
2021,06,26,12,32,31.60
2021,06,26,12,33,31.60
2021,06,26,12,34,31.70
2021,06,26,12,35,31.70
2021,06,26,12,36,31.70
2021,06,26,12,37,31.70
2021,06,26,12,38,31.80
2021,06,26,12,39,31.80
2021,06,26,12,40,31.80
2021,06,26,12,41,31.80
2021,06,26,12,42,31.80
2021,06,26,12,43,31.80
2021,06,26,12,44,31.90
2021,06,26,12,45,31.90
2021,06,26,12,46,31.90
2021,06,26,12,47,31.90
2021,06,26,12,48,32.00
2021,06,26,12,49,32.00
2021,06,26,12,50,32.00
2021,06,26,12,51,32.00
2021,06,26,12,52,32.00
2021,06,26,12,53,32.00
2021,06,26,12,54,32.10
2021,06,26,12,55,32.10
2021,06,26,12,56,32.20
2021,06,26,12,57,32.20
2021,06,26,12,58,32.30
2021,06,26,12,59,32.30
2021,06,26,13,00,32.40
2021,06,26,13,01,32.40
2021,06,26,13,02,32.40
2021,06,26,13,03,32.40
2021,06,26,13,04,32.40
2021,06,26,13,05,32.50
2021,06,26,13,06,32.50
2021,06,26,13,07,32.40
2021,06,26,13,08,32.50
2021,06,26,13,09,32.40
2021,06,26,13,10,32.40
2021,06,26,13,11,32.40
2021,06,26,13,12,32.40
2021,06,26,13,13,32.40
2021,06,26,13,14,32.30
2021,06,26,13,15,32.30
2021,06,26,13,16,32.30
2021,06,26,13,17,32.20
2021,06,26,13,18,32.20
2021,06,26,13,19,32.20
2021,06,26,13,20,32.20
2021,06,26,13,21,32.10
2021,06,26,13,22,32.10
2021,06,26,13,23,32.10
2021,06,26,13,24,32.00
2021,06,26,13,25,32.00
2021,06,26,13,26,31.90
2021,06,26,13,27,31.90
2021,06,26,13,28,31.90
2021,06,26,13,29,31.80
2021,06,26,13,30,31.80
2021,06,26,13,31,31.80
2021,06,26,13,32,31.80
2021,06,26,13,33,31.80
2021,06,26,13,34,31.80
2021,06,26,13,35,31.80
2021,06,26,13,36,31.80
2021,06,26,13,37,31.80
2021,06,26,13,38,31.80
2021,06,26,13,39,31.80
2021,06,26,13,40,31.80
2021,06,26,13,41,31.90
2021,06,26,13,42,32.00
2021,06,26,13,43,32.00
2021,06,26,13,44,32.10
2021,06,26,13,45,32.10
2021,06,26,13,46,32.20
2021,06,26,13,47,32.20
2021,06,26,13,48,32.30
2021,06,26,13,49,32.30
2021,06,26,13,50,32.40
2021,06,26,13,51,32.50
2021,06,26,13,52,32.50
2021,06,26,13,53,32.60
2021,06,26,13,54,32.70
2021,06,26,13,55,32.80
2021,06,26,13,56,32.80
2021,06,26,13,57,32.90
2021,06,26,13,58,32.90
2021,06,26,13,59,32.80
2021,06,26,14,00,32.80
2021,06,26,14,01,32.70
2021,06,26,14,02,32.60
2021,06,26,14,03,32.60
2021,06,26,14,04,32.60
2021,06,26,14,05,32.60
2021,06,26,14,06,32.70
2021,06,26,14,07,32.70
2021,06,26,14,08,32.80
2021,06,26,14,09,32.80
2021,06,26,14,10,32.80
2021,06,26,14,11,32.80
2021,06,26,14,12,32.80
2021,06,26,14,13,32.80
2021,06,26,14,14,32.80
2021,06,26,14,15,32.90
2021,06,26,14,16,32.90
2021,06,26,14,17,33.00
2021,06,26,14,18,33.00
2021,06,26,14,19,33.10
2021,06,26,14,20,33.20
2021,06,26,14,21,33.20
2021,06,26,14,22,33.30
2021,06,26,14,23,33.30
2021,06,26,14,24,33.30
2021,06,26,14,25,33.30
2021,06,26,14,26,33.40
2021,06,26,14,27,33.50
2021,06,26,14,28,33.50
2021,06,26,14,29,33.60
2021,06,26,14,30,33.60
2021,06,26,14,31,33.70
2021,06,26,14,32,33.70
2021,06,26,14,33,33.80
2021,06,26,14,34,33.80
2021,06,26,14,35,33.80
2021,06,26,14,36,33.80
2021,06,26,14,37,33.80
2021,06,26,14,38,33.80
2021,06,26,14,39,33.80
2021,06,26,14,40,33.90
2021,06,26,14,41,33.90
2021,06,26,14,42,33.90
2021,06,26,14,43,33.90
2021,06,26,14,44,33.80
2021,06,26,14,45,33.70
2021,06,26,14,46,33.70
2021,06,26,14,47,33.70
2021,06,26,14,48,33.80
2021,06,26,14,49,33.80
2021,06,26,14,50,33.90
2021,06,26,14,51,33.90
2021,06,26,14,52,33.90
2021,06,26,14,53,34.00
2021,06,26,14,54,34.10
2021,06,26,14,55,34.10
2021,06,26,14,56,34.10
2021,06,26,14,57,34.00
2021,06,26,14,58,33.90
2021,06,26,14,59,33.80
2021,06,26,15,00,33.70
2021,06,26,15,01,33.70
2021,06,26,15,02,33.80
2021,06,26,15,03,33.80
2021,06,26,15,04,33.80
2021,06,26,15,05,33.90
2021,06,26,15,06,33.90
2021,06,26,15,07,34.00
2021,06,26,15,08,34.10
2021,06,26,15,09,34.20
2021,06,26,15,10,34.30
2021,06,26,15,11,34.20
2021,06,26,15,12,34.20
2021,06,26,15,13,34.20
2021,06,26,15,14,34.30
2021,06,26,15,15,34.30
2021,06,26,15,16,34.30
2021,06,26,15,17,34.40
2021,06,26,15,18,34.50
2021,06,26,15,19,34.50
2021,06,26,15,20,34.60
2021,06,26,15,21,34.70
2021,06,26,15,22,34.70
2021,06,26,15,23,34.80
2021,06,26,15,24,34.80
2021,06,26,15,25,34.80
2021,06,26,15,26,34.90
2021,06,26,15,27,34.90
2021,06,26,15,28,34.90
2021,06,26,15,29,35.00
2021,06,26,15,30,35.10
2021,06,26,15,31,35.10
2021,06,26,15,32,35.20
2021,06,26,15,33,35.30
2021,06,26,15,34,35.20
2021,06,26,15,35,35.20
2021,06,26,15,36,35.00
2021,06,26,15,37,35.00
2021,06,26,15,38,34.80
2021,06,26,15,39,34.80
2021,06,26,15,40,34.80
2021,06,26,15,41,34.70
2021,06,26,15,42,34.70
2021,06,26,15,43,34.70
2021,06,26,15,44,34.70
2021,06,26,15,45,34.70
2021,06,26,15,46,34.70
2021,06,26,15,47,34.70
2021,06,26,15,48,34.70
2021,06,26,15,49,34.70
2021,06,26,15,50,34.70
2021,06,26,15,51,34.70
2021,06,26,15,52,34.70
2021,06,26,15,53,34.70
2021,06,26,15,54,34.70
2021,06,26,15,55,34.70
2021,06,26,15,56,34.70
2021,06,26,15,57,34.70
2021,06,26,15,58,34.80
2021,06,26,15,59,34.70
2021,06,26,16,00,34.80
2021,06,26,16,01,34.80
2021,06,26,16,02,34.80
2021,06,26,16,03,34.90
2021,06,26,16,04,35.00
2021,06,26,16,05,35.10
2021,06,26,16,06,35.20
2021,06,26,16,07,35.30
2021,06,26,16,08,35.30
2021,06,26,16,09,35.40
2021,06,26,16,10,35.50
2021,06,26,16,11,35.60
2021,06,26,16,12,35.70
2021,06,26,16,13,35.60
2021,06,26,16,14,35.60
2021,06,26,16,15,35.70
2021,06,26,16,16,35.70
2021,06,26,16,17,35.70
2021,06,26,16,18,35.80
2021,06,26,16,19,35.80
2021,06,26,16,20,35.80
2021,06,26,16,21,35.80
2021,06,26,16,22,35.70
2021,06,26,16,23,35.70
2021,06,26,16,24,35.70
2021,06,26,16,25,35.70
2021,06,26,16,26,35.70
2021,06,26,16,27,35.70
2021,06,26,16,28,35.70
2021,06,26,16,29,35.70
2021,06,26,16,30,35.80
2021,06,26,16,31,35.80
2021,06,26,16,32,35.90
2021,06,26,16,33,35.90
2021,06,26,16,34,36.00
2021,06,26,16,35,36.00
2021,06,26,16,36,36.00
2021,06,26,16,37,36.10
2021,06,26,16,38,36.10
2021,06,26,16,39,36.10
2021,06,26,16,40,36.00
2021,06,26,16,41,36.00
2021,06,26,16,42,35.90
2021,06,26,16,43,35.90
2021,06,26,16,44,35.90
2021,06,26,16,45,35.90
2021,06,26,16,46,35.90
2021,06,26,16,47,35.90
2021,06,26,16,48,36.00
2021,06,26,16,49,36.00
2021,06,26,16,50,36.00
2021,06,26,16,51,36.10
2021,06,26,16,52,36.10
2021,06,26,16,53,36.10
2021,06,26,16,54,36.10
2021,06,26,16,55,36.10
2021,06,26,16,56,36.20
2021,06,26,16,57,36.20
2021,06,26,16,58,36.20
2021,06,26,16,59,36.20
2021,06,26,17,00,36.20
2021,06,26,17,01,36.20
2021,06,26,17,02,36.30
2021,06,26,17,03,36.30
2021,06,26,17,04,36.40
2021,06,26,17,05,36.40
2021,06,26,17,06,36.50
2021,06,26,17,07,36.60
2021,06,26,17,08,36.70
2021,06,26,17,09,36.70
2021,06,26,17,10,36.80
2021,06,26,17,11,36.80
2021,06,26,17,12,36.80
2021,06,26,17,13,36.70
2021,06,26,17,14,36.60
2021,06,26,17,15,36.50
2021,06,26,17,16,36.50
2021,06,26,17,17,36.40
2021,06,26,17,18,36.40
2021,06,26,17,19,36.30